Weather History for Anapa, Russia

Change the Weather History Date:

Friday, February 15, 2013

  Actual Average Record
Temperature  
Mean Temperature 46 °F -  
Max Temperature 55 °F - - ()
Min Temperature 37 °F - - ()
Degree Days  
Heating Degree Days 19    
Moisture  
Dew Point 37 °F    
Average Humidity 75    
Maximum Humidity 93    
Minimum Humidity 47    
Precipitation  
Precipitation 0.00 in - - ()
Sea Level Pressure  
Sea Level Pressure 29.78 in    
Wind  
Wind Speed 15 mph ()    
Max Wind Speed 22 mph    
Max Gust Speed 27 mph    
Visibility 6.1 miles    
Events      
T = Trace of Precipitation, MM = Missing Value Source: Averaged Metar Reports

Daily Weather History Graph

Daily Weather History Graph

Search for Another Location

Airport:

Trip Planner

Search our weather history database for the weather conditions in past years. The results will help you decide how hot, cold, wet, or windy it might be!

Date:

Astronomy

Feb. 15, 2013 Rise Set
Actual Time 8:31 AM MSK 6:58 PM MSK
Civil Twilight 8:01 AM MSK 7:28 PM MSK
Nautical Twilight 7:27 AM MSK 8:03 PM MSK
Astronomical Twilight 6:53 AM MSK 8:37 PM MSK
Moon 10:38 AM MSK (2/15) No Moon Set
Length of Visible Light 11h 27m
Length of Day
10h 26m
Waxing Crescent, 27% of the Moon is Illuminated
Feb 15
Waxing Crescent
Feb 18
First Quarter
Feb 26
Full
Mar 5
Last Quarter
Mar 11
New

Hourly Weather History & Observations

Time (MSK) Temp. Windchill Dew Point Humidity Pressure Visibility Wind Dir Wind Speed Gust Speed Precip Events Conditions
12:00 AM 42.8 °F 34.7 °F 37.4 °F 81% 29.92 in - East 17.9 mph - N/A   Clear
1:00 AM 44 °F - 37 °F 70% 29.89 in 6 mi ENE 13.4 mph - -  
1:00 AM 42.8 °F 35.2 °F 37.4 °F 81% 29.89 in - East 15.7 mph - N/A   Clear
2:00 AM 41.0 °F 32.9 °F 37.4 °F 87% 29.89 in - East 15.7 mph 26.8 mph N/A   Clear
3:00 AM 41.0 °F 31.3 °F 35.6 °F 81% 29.86 in - East 22.4 mph - N/A   Clear
4:00 AM 41 °F - 35 °F 73% 29.84 in 6 mi ENE 15.7 mph - -   Clear
4:00 AM 39.2 °F 30.0 °F 35.6 °F 87% 29.86 in - East 17.9 mph - N/A   Clear
5:00 AM 39.2 °F 29.4 °F 35.6 °F 87% 29.83 in - East 20.1 mph - N/A   Clear
6:00 AM 37.4 °F 27.0 °F 35.6 °F 93% 29.80 in - East 20.1 mph - N/A   Clear
7:00 AM 39 °F - 34 °F 76% 29.81 in 6 mi East 13.4 mph - -   Clear
7:00 AM 37.4 °F 27.0 °F 33.8 °F 87% 29.80 in - East 20.1 mph - N/A   Clear
8:00 AM 37.4 °F 27.0 °F 33.8 °F 87% 29.80 in - East 20.1 mph - N/A   Clear
8:30 AM 37.4 °F 26.5 °F 33.8 °F 87% 29.80 in - East 22.4 mph - N/A   Clear
9:00 AM 37.4 °F 27.0 °F 33.8 °F 87% 29.80 in - East 20.1 mph - N/A   Clear
9:30 AM 37.4 °F 27.0 °F 33.8 °F 87% 29.80 in 6.2 mi East 20.1 mph - N/A   Overcast
10:00 AM 39 °F - 34 °F 76% 29.81 in 6 mi East 13.4 mph - -   Overcast
10:00 AM 37.4 °F 26.5 °F 33.8 °F 87% 29.80 in 6.2 mi East 22.4 mph - N/A   Scattered Clouds
10:30 AM 39.2 °F 29.4 °F 35.6 °F 87% 29.80 in 6.2 mi East 20.1 mph - N/A   Scattered Clouds
11:00 AM 39.2 °F 29.4 °F 35.6 °F 87% 29.80 in 6.2 mi East 20.1 mph - N/A   Partly Cloudy
11:30 AM 41.0 °F 31.8 °F 35.6 °F 81% 29.80 in 6.2 mi East 20.1 mph - N/A   Partly Cloudy
12:00 PM 39.2 °F 29.4 °F 35.6 °F 87% 29.80 in 6.2 mi ENE 20.1 mph - N/A   Partly Cloudy
12:30 PM 42.8 °F 34.1 °F 35.6 °F 76% 29.77 in 6.2 mi ENE 20.1 mph - N/A   Partly Cloudy
1:00 PM 48 °F - 37 °F 56% 29.78 in 6 mi ENE 8.9 mph - -   Clear
1:00 PM 44.6 °F 37.0 °F 37.4 °F 76% 29.77 in - ENE 17.9 mph - N/A   Clear
1:30 PM 42.8 °F 34.1 °F 35.6 °F 76% 29.77 in - ENE 20.1 mph - N/A   Clear
2:00 PM 44.6 °F 37.0 °F 37.4 °F 76% 29.77 in - ENE 17.9 mph - N/A   Clear
2:30 PM 46.4 °F 39.3 °F 37.4 °F 71% 29.74 in - ENE 17.9 mph - N/A   Clear
3:00 PM 48.2 °F - 37.4 °F 66% 29.74 in - ENE 17.9 mph - N/A   Clear
3:30 PM 50.0 °F - 39.2 °F 66% 29.74 in - ENE 15.7 mph - N/A   Clear
4:00 PM 54 °F - 40 °F 47% 29.75 in 6 mi NNE 2.2 mph - -   Clear
4:00 PM 50.0 °F - 39.2 °F 66% 29.74 in - ENE 15.7 mph - N/A   Clear
4:30 PM 51.8 °F - 39.2 °F 62% 29.74 in - ENE 15.7 mph - N/A   Clear
5:00 PM 51.8 °F - 39.2 °F 62% 29.74 in - ENE 13.4 mph - N/A   Clear
5:30 PM 50.0 °F - 39.2 °F 66% 29.74 in - ENE 17.9 mph - N/A   Clear
6:00 PM 50.0 °F - 39.2 °F 66% 29.74 in - ENE 13.4 mph - N/A   Clear
6:30 PM 48.2 °F - 39.2 °F 71% 29.74 in - ENE 13.4 mph - N/A   Clear
7:00 PM 50 °F - 39 °F 55% 29.74 in 6 mi NE 6.7 mph - -   Clear
7:00 PM 48.2 °F - 39.2 °F 71% 29.74 in - ENE 11.2 mph - N/A   Clear
7:30 PM 46.4 °F 40.5 °F 37.4 °F 71% 29.74 in - East 13.4 mph - N/A   Clear
8:00 PM 46.4 °F 40.5 °F 37.4 °F 71% 29.74 in - East 13.4 mph - N/A   Clear
8:30 PM 46.4 °F 39.9 °F 37.4 °F 71% 29.74 in - East 15.7 mph - N/A   Clear
9:00 PM 46.4 °F 39.9 °F 37.4 °F 71% 29.71 in - East 15.7 mph - N/A   Clear
10:00 PM 48 °F - 37 °F 57% 29.73 in 6 mi East 8.9 mph - -   Overcast
10:00 PM 42.8 °F 35.2 °F 37.4 °F 81% 29.74 in - East 15.7 mph - N/A   Clear
11:00 PM 42.8 °F 35.2 °F 35.6 °F 76% 29.74 in - ENE 15.7 mph - N/A   Clear